{"data":{"norad_id":67521,"epoch":"2026-09-19T19:39:55.599264Z","epoch_age_seconds":130881,"freshness":"FRESH","line1":"1 67521U 26012AE  26262.81939351  .00015363  00000+0  56646-3 0  9996","line2":"2 67521  43.0032 297.8671 0001728 271.3298  88.7356 15.27589228 37450","mean_motion":15.27589228,"eccentricity":0.0001728,"inclination_deg":43.0032,"raan_deg":297.8671,"arg_perigee_deg":271.3298,"mean_anomaly_deg":88.7356,"bstar":0.00056646,"rev_number":3745,"period_min":94.266179258499,"perigee_km":481.83585604438,"apogee_km":484.20707240962,"semimajor_km":6861.158464227,"source":"CELESTRAK","updated_at":"2026-09-20T09:00:43.564799Z"}}